Location: Vancouver
(49.2500°N, 123.1330°W)
Time: 20:02:10
(UTC-08:00)

Daily predictions for brighter satellites

Satellite Brightness Start Highest point End
(mag) Time Altitude Azimuth Time Altitude Azimuth Time Altitude Azimuth
CENTAUR R/B 2.7 16:47:46 10° SW 16:53:55 84° SE 17:01:04 10° NE
COSMOS 2455 3.0 16:48:17 10° SSW 16:54:11 60° ESE 17:00:07 10° NE
COSMOS 2441 4.4 16:49:30 10° SSE 16:54:22 71° ENE 16:59:16 10° N
Cosmos 1733 Rocket 3.1 16:51:28 10° N 16:55:57 78° E 17:00:24 10° SSE
Cosmos 1908 Rocket 4.1 16:52:37 10° N 16:56:38 36° ENE 17:00:38 10° SE
Meteor 1-25 Rocket 4.5 16:55:19 10° N 17:01:02 50° ENE 17:06:39 10° SSE
Cosmos 2173 Rocket 4.5 16:55:11 10° SSW 17:01:14 65° WNW 17:07:25 10° N
IDEFIX/ARIANE 42P 3.4 16:59:07 10° S 17:04:15 57° W 17:09:25 10° NNW
Cosmos 1782 4.2 17:03:06 10° SE 17:06:00 20° E 17:08:55 10° NE
Cosmos 1844 Rocket 3.0 17:02:37 10° SW 17:08:15 72° WNW 17:13:53 10° NNE
Cosmos 44 Rocket 3.6 17:06:21 10° NNW 17:11:02 46° NE 17:15:47 10° ESE
Cosmos 304 Rocket 4.0 17:07:06 10° NNW 17:11:56 78° WSW 17:16:43 10° SSE
Cosmos 1862 Rocket 3.6 17:09:16 10° S 17:13:40 71° E 17:18:10 10° NNE
CZ-2C R/B 3.2 17:09:22 10° S 17:14:21 61° W 17:19:30 10° NNW
Cosmos 292 Rocket 4.4 17:10:58 10° N 17:15:17 33° ENE 17:19:34 10° ESE
SJ-7 4.4 17:12:25 10° SSE 17:16:31 67° ENE 17:20:35 10° N
SPOT 3 Rocket 4.4 17:12:31 10° ESE 17:16:50 27° ENE 17:21:09 10° N
Okean 1-7 4.1 17:16:28 10° SE 17:20:01 25° E 17:23:36 10° NNE
SJ-12 4.4 17:17:26 10° S 17:21:34 68° WSW 17:25:44 10° NNW
Cosmos 2242 Rocket 3.9 17:17:42 10° SSW 17:22:14 75° W 17:26:47 10° N
Sich 1 Rocket 3.7 17:19:10 10° N 17:23:32 55° ENE 17:27:55 10° SSE
Cosmos 2233 Rocket 4.0 17:21:17 10° S 17:27:29 71° E 17:33:40 10° NNE
Cosmos 1763 Rocket 4.2 17:22:28 10° NNW 17:27:36 59° WSW 17:32:37 10° S
Cosmos 44 3.2 17:25:43 10° NW 17:30:19 66° NE 17:35:10 10° SE
CSL-04 Debris 4.2 17:25:56 10° SSE 17:31:22 88° W 17:36:49 10° NNW
Lacrosse 5 2.8 17:27:03 10° WNW 17:31:46 37° N 17:35:34 15° NE
Cosmos 1833 Rocket 2.6 17:28:34 10° NNW 17:34:13 75° ENE 17:39:50 10° SE
AQUARIUS 4.2 17:32:54 10° SSE 17:37:24 88° WSW 17:41:56 10° NNW
USA 161 3.3 17:35:49 10° NNW 17:37:24 21° WNW 17:39:05 10° SW
USA 116 4.2 17:35:05 10° NNE 17:39:23 43° E 17:43:08 10° S
Cosmos 405 3.8 17:36:14 10° N 17:39:25 28° ENE 17:42:34 10° SE
SL-27 R/B 2.9 17:37:25 10° NNW 17:40:43 59° WSW 17:44:01 10° S
Cosmos 1782 Rocket 3.5 17:37:16 10° N 17:41:35 60° ENE 17:45:54 10° SSE
Cosmos 1437 3.9 17:39:08 10° SSW 17:42:11 43° WNW 17:45:15 10° N
ATLAS 3B R/B 4.1 17:37:59 10° WNW 17:43:50 27° NNW 17:49:01 12° NE
BREEZE-M R/B 4.4 17:44:02 10° W 17:46:13 23° SSW 17:49:13 10° SSE
Meteor 1-28 Rocket 3.2 17:42:47 10° NNE 17:46:29 58° E 17:50:08 10° S
Cosmos 2263 Rocket 4.4 17:43:38 10° WNW 17:47:01 16° NNW 17:50:23 10° N
CORIOLIS 4.3 17:42:00 10° SSE 17:47:28 84° WSW 17:52:57 10° NNW
Cosmos 540 Rocket 3.4 17:42:47 10° NNW 17:48:00 87° ENE 17:53:10 10° SSE
NOAA 12 4.5 17:43:48 10° SE 17:48:46 41° ENE 17:53:43 10° N
Cosmos 2297 4.1 17:43:34 10° S 17:48:57 44° ESE 17:53:13 16° NE
COSMO-SKYMED 1 3.3 17:46:08 15° NE 17:49:11 33° E 17:53:06 10° SSE
COSMOS 2487 3.2 17:46:35 10° N 17:49:46 30° ENE 17:50:41 26° E
Cosmos 2278 Rocket 2.2 17:45:19 10° SSW 17:51:00 85° WNW 17:56:44 10° NNE
ALOS 2.7 17:46:53 10° SE 17:51:12 39° ENE 17:55:34 10° N
YAOGAN 1 2.4 17:47:52 10° SSE 17:52:11 75° ENE 17:56:32 10° N
SMAP 3.8 17:52:58 10° S 17:57:33 57° W 18:02:09 10° NNW
Cosmos 1606 2.5 17:54:36 10° S 17:58:22 71° E 18:02:04 11° NNE
Landsat 4 3.7 17:56:37 16° NNE 17:59:31 56° E 18:03:15 10° S
Cosmos 1441 Rocket 4.1 17:56:15 10° SSE 17:59:38 29° E 17:59:38 29° E
Cosmos 968 Rocket 4.4 17:55:52 10° SSE 18:00:04 26° E 18:00:45 25° E
USA 234 4.3 18:01:49 21° E 18:04:14 25° SE 18:09:28 10° S
Ariane Rocket 4.1 18:00:51 10° S 18:05:44 46° W 18:10:38 10° NNW
Cosmos 1503 Rocket 4.0 18:00:39 10° S 18:05:50 64° ESE 18:09:46 17° NNE
CZ-4C R/B 2.8 18:01:25 10° NW 18:08:22 78° NE 18:16:15 10° SE
EO 1 Del DPAF 3.5 18:07:34 34° NE 18:08:41 45° E 18:12:21 10° S
Meteor 1-11 Rocket 3.8 18:04:10 10° N 18:10:00 60° ENE 18:15:39 10° SSE
Cosmos 1891 Rocket 4.4 18:06:01 10° S 18:12:02 59° E 18:17:58 10° NNE
Cosmos 1703 Rocket 3.8 18:09:16 10° SSW 18:13:43 73° W 18:18:11 10° N
Cosmos 2151 Rocket 3.7 18:12:42 10° N 18:16:59 48° ENE 18:21:17 10° SSE
METEOR-M 4.2 18:12:15 10° SSE 18:17:36 80° WSW 18:22:59 10° NNW
Cosmos 2221 Rocket 3.4 18:13:53 10° S 18:18:18 82° E 18:22:32 11° NNE
ERS-2 2.4 18:15:07 10° S 18:18:47 68° WSW 18:22:28 10° NNW
Intercosmos 25 4.2 18:12:06 10° S 18:19:15 85° W 18:23:39 10° N
SKYMED 3 4.5 18:16:28 21° NNE 18:19:20 65° ESE 18:23:38 10° S
Nadezhda 4 Rocket 3.9 18:15:18 10° N 18:21:23 60° ENE 18:27:24 10° SSE
Cosmos 1536 4.5 18:19:14 10° N 18:20:45 21° NNE 18:20:45 21° NNE
CZ-4 R/B 3.0 18:20:12 10° SSW 18:23:45 34° W 18:27:18 10° NNW
Cosmos 1602 3.7 18:21:01 10° N 18:24:52 84° W 18:28:43 10° S
Meteor 2-20 4.3 18:19:24 10° N 18:25:32 79° E 18:31:36 10° SSE
Cosmos 1633 4.2 18:22:46 10° NNW 18:26:10 36° W 18:29:33 10° SSW
Cosmos 2082 Rocket 3.2 18:21:24 10° NW 18:26:52 48° WSW 18:32:16 10° S
Okean 2 Rocket 3.4 18:25:21 10° NNW 18:29:52 70° W 18:34:22 10° S
Cosmos 2034 Rocket 3.9 18:28:52 10° S 18:35:12 76° E 18:41:33 10° NNE
Cosmos 405 Rocket 2.5 18:31:36 10° S 18:35:22 89° E 18:35:43 72° NNE
SL-23 DEB 4.4 18:32:10 10° WNW 18:36:10 79° SSW 18:38:32 36° ESE
SKYMED 2 3.5 18:34:43 23° NNE 18:37:22 85° WNW 18:41:43 10° SSW
Meteor 2-6 Rocket 4.3 18:34:47 10° SSW 18:40:16 76° WNW 18:45:57 10° N
COSMOS 2455 4.1 18:34:58 10° WSW 18:40:28 36° NW 18:44:40 16° NNE
Timation 2 Rocket 4.1 18:33:40 10° NNW 18:40:31 86° WSW 18:47:05 10° SSE
Cosmos 1092 Rocket 3.9 18:34:29 10° N 18:40:35 59° ENE 18:46:40 10° SSE
Cosmos 1782 4.1 18:38:17 10° SW 18:42:05 40° WNW 18:45:54 10° N
BREEZE-M DEB (TANK) 3.9 18:42:07 10° SW 18:43:16 27° SSW 18:43:16 27° SSW
CENTAUR R/B 3.8 18:39:25 10° W 18:45:26 36° NNW 18:49:37 21° NNE
Cosmos 1354 Rocket 4.3 18:40:38 10° SW 18:45:52 65° WNW 18:49:10 23° NNE
Cosmos 2285 Rocket 4.3 18:45:28 10° NNW 18:51:14 45° NE 18:51:14 45° NE
SPOT 3 Rocket 4.3 18:50:51 10° S 18:55:57 53° W 19:01:03 10° NNW
Okean 1-7 4.4 18:53:19 10° SW 18:57:25 38° WNW 19:01:34 10° N
USA 229 DEB 4.1 18:52:02 10° S 18:57:42 41° SE 18:57:42 41° SE
USA 229 4.1 18:52:10 10° S 18:57:45 41° SE 18:57:45 41° SE
Cosmos 1538 Rocket 3.9 18:55:46 10° NNW 19:01:06 85° ENE 19:01:49 68° SE
FengYun 1-2 T 4.1 18:56:18 13° SSE 19:01:15 86° ENE 19:06:52 10° NNW
FENGYUN 3A 4.3 18:57:42 10° S 19:03:00 55° W 19:08:20 10° NNW
Meteor 1-5 Rocket 4.1 19:00:48 10° NNW 19:06:10 78° W 19:11:27 10° S
Cosmos 2195 Rocket 4.3 19:07:01 10° N 19:13:18 73° ENE 19:13:18 73° ENE
Lacrosse 5 2.9 19:10:57 10° NW 19:14:45 35° NNW 19:14:45 35° NNW
Meteor 1-27 Rocket 4.2 19:10:27 10° SSW 19:16:19 63° WNW 19:21:59 11° N
Cosmos 2026 Rocket 4.1 19:13:52 10° N 19:19:11 60° NNE 19:19:11 60° NNE
COSMO-SKYMED 1 4.3 19:23:21 21° NNW 19:25:17 30° WNW 19:29:05 10° SW
Cosmos 2369 Rocket 4.2 19:20:19 10° S 19:21:18 15° S 19:21:18 15° S
ALOS 4.2 19:24:44 10° SSW 19:28:44 28° W 19:32:48 10° NW
Cosmos 2278 Rocket 4.3 19:31:43 10° W 19:35:58 21° NW 19:38:41 16° N
ATLAS 3B R/B 4.0 19:31:06 10° NW 19:36:16 26° N 19:36:16 26° N
Cosmos 968 Rocket 4.3 19:36:30 10° SW 19:40:49 48° W 19:40:49 48° W
USA 234 3.5 19:49:11 60° SSW 19:49:11 60° SSW 19:54:30 10° SW
CZ-4C R/B 4.3 19:50:25 10° NW 19:56:39 32° WSW 20:03:27 10° S
CENTAUR R/B 4.4 20:32:24 10° NW 20:36:48 25° NNW 20:36:48 25° NNW
